Weather History for Plattsmouth, NE

Change the Weather History Date:

Thursday, November 15, 2012

  Actual Average (KOFF) Record (KOFF)
Temperature  
Mean Temperature 48 °F -  
Max Temperature 59 °F 49 °F 75 °F (2001)
Min Temperature 37 °F 30 °F 19 °F (1997)
Degree Days  
Heating Degree Days 16    
Moisture  
Dew Point 31 °F    
Average Humidity 55    
Maximum Humidity 78    
Minimum Humidity 31    
Precipitation  
Precipitation 0.00 in - - ()
Sea Level Pressure  
Sea Level Pressure 30.29 in    
Wind  
Wind Speed 8 mph (NNW)    
Max Wind Speed 15 mph    
Max Gust Speed 16 mph    
Visibility 10 miles    
Events      
Averages and records for this station are not official NWS values.
T = Trace of Precipitation, MM = Missing Value Source: NWS Daily Summary

Daily Weather History Graph

Daily Weather History Graph

Search for Another Location

Airport:

Trip Planner

Search our weather history database for the weather conditions in past years. The results will help you decide how hot, cold, wet, or windy it might be!

Date:

Astronomy

Nov. 15, 2012 Rise Set
Actual Time 7:11 AM CST 5:04 PM CST
Civil Twilight 6:42 AM CST 5:34 PM CST
Nautical Twilight 6:08 AM CST 6:07 PM CST
Astronomical Twilight 5:36 AM CST 6:39 PM CST
Moon 9:08 AM CST (11/15) 6:56 PM CST (11/15)
Length of Visible Light 10h 52m
Length of Day
9h 53m
Waxing Crescent, 5% of the Moon is Illuminated
Nov 15
Waxing Crescent
Nov 20
First Quarter
Nov 28
Full
Dec 6
Last Quarter
Dec 13
New

Hourly Weather History & Observations

Time (CST) Temp. Windchill Dew Point Humidity Pressure Visibility Wind Dir Wind Speed Gust Speed Precip Events Conditions
12:15 AM 44.1 °F 37.7 °F 29.8 °F 57% 30.21 in 10.0 mi South 12.7 mph - N/A   Scattered Clouds
12:35 AM 44.1 °F 37.1 °F 29.8 °F 57% 30.20 in 10.0 mi South 15.0 mph - N/A   Mostly Cloudy
12:55 AM 43.7 °F 36.9 °F 29.8 °F 58% 30.20 in 10.0 mi South 13.8 mph - N/A   Scattered Clouds
1:15 AM 43.7 °F 37.3 °F 29.7 °F 58% 30.19 in 10.0 mi South 12.7 mph - N/A   Scattered Clouds
1:35 AM 43.7 °F 37.7 °F 29.7 °F 58% 30.19 in 10.0 mi South 11.5 mph - N/A   Mostly Cloudy
1:55 AM 43.7 °F 37.7 °F 29.7 °F 58% 30.19 in 10.0 mi South 11.5 mph - N/A   Mostly Cloudy
2:15 AM 43.5 °F 37.9 °F 29.8 °F 59% 30.19 in 10.0 mi SSE 10.4 mph - N/A   Overcast
2:35 AM 43.5 °F 40.9 °F 29.5 °F 58% 30.20 in 10.0 mi SSE 4.6 mph - N/A   Overcast
2:55 AM 43.0 °F 38.2 °F 29.8 °F 60% 30.20 in 10.0 mi SSE 8.1 mph - N/A   Overcast
3:15 AM 42.6 °F 37.8 °F 30.0 °F 61% 30.19 in 10.0 mi South 8.1 mph - N/A   Overcast
3:35 AM 41.9 °F 40.0 °F 30.2 °F 63% 30.20 in 10.0 mi South 3.5 mph - N/A   Overcast
3:55 AM 41.9 °F 39.0 °F 30.2 °F 63% 30.20 in 10.0 mi SSE 4.6 mph - N/A   Overcast
4:15 AM 41.9 °F 38.2 °F 30.2 °F 63% 30.20 in 10.0 mi SSE 5.8 mph - N/A   Overcast
4:35 AM 41.9 °F 39.0 °F 30.6 °F 64% 30.20 in 10.0 mi SE 4.6 mph - N/A   Overcast
4:55 AM 41.9 °F 39.0 °F 30.6 °F 64% 30.20 in 10.0 mi SSE 4.6 mph - N/A   Overcast
5:15 AM 41.5 °F 37.8 °F 30.9 °F 66% 30.21 in 10.0 mi SSE 5.8 mph - N/A   Overcast
5:35 AM 41.2 °F 39.2 °F 31.1 °F 67% 30.21 in 10.0 mi SSE 3.5 mph - N/A   Overcast
5:55 AM 41.0 °F - 31.1 °F 68% 30.22 in 10.0 mi Calm Calm - N/A   Overcast
6:15 AM 40.3 °F - 31.5 °F 71% 30.23 in 10.0 mi Calm Calm - N/A   Mostly Cloudy
6:35 AM 40.5 °F 36.5 °F 31.6 °F 71% 30.22 in 10.0 mi South 5.8 mph - N/A   Mostly Cloudy
6:55 AM 40.5 °F 35.1 °F 32.0 °F 72% 30.23 in 10.0 mi South 8.1 mph - N/A   Overcast
7:15 AM 41.4 °F 36.8 °F 32.0 °F 69% 30.24 in 10.0 mi South 6.9 mph - N/A   Overcast
7:35 AM 41.9 °F 38.2 °F 31.8 °F 67% 30.25 in 10.0 mi SSW 5.8 mph - N/A   Overcast
7:55 AM 42.3 °F 38.6 °F 32.0 °F 67% 30.25 in 10.0 mi SW 5.8 mph - N/A   Overcast
8:15 AM 43.5 °F 38.9 °F 31.8 °F 63% 30.26 in 10.0 mi WSW 8.1 mph - N/A   Overcast
8:35 AM 43.9 °F 41.3 °F 32.0 °F 63% 30.26 in 10.0 mi WSW 4.6 mph - N/A   Overcast
8:55 AM 44.6 °F 42.2 °F 32.5 °F 63% 30.26 in 10.0 mi WNW 4.6 mph - N/A   Overcast
9:15 AM 45.7 °F 44.4 °F 32.4 °F 60% 30.27 in 10.0 mi WNW 3.5 mph - N/A   Overcast
9:35 AM 46.0 °F 44.8 °F 32.5 °F 59% 30.28 in 10.0 mi NNW 3.5 mph - N/A   Scattered Clouds
9:55 AM 46.4 °F 44.3 °F 32.2 °F 58% 30.28 in 10.0 mi NW 4.6 mph - N/A   Scattered Clouds
10:15 AM 47.5 °F - 32.5 °F 56% 30.29 in 10.0 mi NW 5.8 mph - N/A   Clear
10:35 AM 50.7 °F - 33.1 °F 51% 30.30 in 10.0 mi NW 8.1 mph - N/A   Clear
10:55 AM 52.3 °F - 32.0 °F 46% 30.30 in 10.0 mi NNW 10.4 mph - N/A   Clear
11:15 AM 52.2 °F - 31.1 °F 45% 30.30 in 10.0 mi North 8.1 mph - N/A   Clear
11:35 AM 52.7 °F - 32.0 °F 45% 30.30 in 10.0 mi North 5.8 mph - N/A   Clear
11:55 AM 53.6 °F - 32.2 °F 44% 30.30 in 10.0 mi NNW 6.9 mph - N/A   Clear
12:15 PM 55.0 °F - 32.5 °F 43% 30.30 in 10.0 mi North 5.8 mph - N/A   Clear
12:35 PM 56.1 °F - 31.6 °F 39% 30.30 in 10.0 mi North 6.9 mph - N/A   Clear
12:55 PM 58.1 °F - 30.9 °F 36% 30.29 in 10.0 mi North 4.6 mph - N/A   Clear
1:15 PM 59.5 °F - 30.7 °F 34% 30.29 in 10.0 mi North 11.5 mph - N/A   Clear
1:35 PM 59.9 °F - 30.0 °F 32% 30.29 in 10.0 mi North 9.2 mph - N/A   Clear
1:55 PM 59.9 °F - 28.8 °F 31% 30.29 in 10.0 mi North 10.4 mph 16.1 mph N/A   Clear
2:15 PM 59.9 °F - 29.1 °F 31% 30.28 in 10.0 mi North 9.2 mph - N/A   Clear
2:35 PM 59.9 °F - 29.1 °F 31% 30.29 in 10.0 mi North 9.2 mph - N/A   Clear
2:55 PM 59.5 °F - 29.1 °F 32% 30.29 in 10.0 mi North 5.8 mph - N/A   Clear
3:15 PM 59.0 °F - 29.1 °F 32% 30.30 in 10.0 mi North 10.4 mph - N/A   Clear
3:35 PM 58.6 °F - 29.1 °F 33% 30.30 in 10.0 mi North 4.6 mph - N/A   Clear
3:55 PM 57.9 °F - 29.5 °F 34% 30.31 in 10.0 mi North 6.9 mph - N/A   Clear
4:15 PM 57.2 °F - 29.7 °F 35% 30.31 in 10.0 mi North 8.1 mph - N/A   Clear
4:35 PM 55.4 °F - 30.9 °F 39% 30.32 in 10.0 mi North 3.5 mph - N/A   Clear
4:55 PM 53.1 °F - 31.1 °F 43% 30.33 in 10.0 mi Calm Calm - N/A   Clear
5:15 PM 51.8 °F - 30.7 °F 45% 30.33 in 10.0 mi Calm Calm - N/A   Clear
5:35 PM 49.5 °F - 30.2 °F 48% 30.33 in 10.0 mi NNW 3.5 mph - N/A   Clear
5:55 PM 46.8 °F - 30.2 °F 53% 30.34 in 10.0 mi NNW 4.6 mph - N/A   Clear
6:15 PM 45.5 °F 43.2 °F 30.2 °F 55% 30.35 in 10.0 mi NNW 4.6 mph - N/A   Clear
6:35 PM 46.8 °F - 30.2 °F 53% 30.36 in 10.0 mi NNW 3.5 mph - N/A   Clear
6:55 PM 46.9 °F - 30.2 °F 52% 30.36 in 10.0 mi NNW 4.6 mph - N/A   Clear
7:15 PM 45.9 °F 43.6 °F 31.1 °F 56% 30.37 in 10.0 mi North 4.6 mph - N/A   Clear
7:35 PM 45.7 °F 42.0 °F 32.0 °F 59% 30.38 in 10.0 mi North 6.9 mph - N/A   Clear
7:55 PM 45.5 °F 43.2 °F 32.4 °F 60% 30.38 in 10.0 mi North 4.6 mph - N/A   Clear
9:15 PM 42.8 °F 40.1 °F 32.0 °F 66% 30.40 in 10.0 mi NNW 4.6 mph - N/A   Clear
9:35 PM 41.4 °F - 32.0 °F 69% 30.41 in 10.0 mi Calm Calm - N/A   Clear
9:55 PM 41.4 °F - 31.8 °F 69% 30.41 in 10.0 mi Calm Calm - N/A   Clear
10:15 PM 39.7 °F 37.6 °F 31.6 °F 73% 30.41 in 10.0 mi North 3.5 mph - N/A   Clear
10:35 PM 40.1 °F 38.0 °F 31.8 °F 72% 30.41 in 10.0 mi North 3.5 mph - N/A   Clear
10:55 PM 40.3 °F - 31.5 °F 71% 30.42 in 10.0 mi Calm Calm - N/A   Clear
11:15 PM 39.2 °F 35.9 °F 31.6 °F 74% 30.43 in 10.0 mi North 4.6 mph - N/A   Clear
11:35 PM 38.5 °F 36.1 °F 31.3 °F 75% 30.43 in 10.0 mi North 3.5 mph - N/A   Clear
11:55 PM 37.4 °F 34.9 °F 31.1 °F 78% 30.43 in 10.0 mi North 3.5 mph - N/A   Clear